This is the latest recevied weather packets stored in our database for station/object SQ5TM-1. If no packets are shown the sender has not sent any weather packets the latest 10 day(s).
| Time | Temp. | Humidity | Pressure | Rain* | Wind** | Luminosity | Snow |
|---|---|---|---|---|---|---|---|
| 1777449464 | 5.56° C | 51% | 1015 hPa | - | - | 0 W/m² | - |
| 1777448539 | 5.56° C | 47% | 1015 hPa | - | - | 0 W/m² | - |
| 1777447615 | 6.11° C | 49% | 1015 hPa | - | - | 0 W/m² | - |
| 1777446690 | 5.56° C | 51% | 1015 hPa | - | - | 0 W/m² | - |
| 1777445766 | 5° C | 52% | 1015 hPa | - | - | 0 W/m² | - |
| 1777444842 | 5.56° C | 53% | 1015 hPa | - | - | 0 W/m² | - |
| 1777443918 | 4.44° C | 56% | 1015 hPa | - | - | 0 W/m² | - |
| 1777442993 | 3.89° C | 56% | 1015 hPa | - | - | 0 W/m² | - |
| 1777442264 | 3.89° C | 57% | 1015 hPa | - | - | 0 W/m² | - |
| 1777441291 | 3.33° C | 57% | 1015 hPa | - | - | 0 W/m² | - |
| 1777440366 | 2.78° C | 59% | 1014 hPa | - | - | 0 W/m² | - |
| 1777439442 | 2.22° C | 60% | 1014 hPa | - | - | 0 W/m² | - |
| 1777438517 | 1.67° C | 61% | 1014 hPa | - | - | 0 W/m² | - |
| 1777437593 | 1.11° C | 61% | 1014 hPa | - | - | 0 W/m² | - |
| 1777436668 | 0.56° C | 62% | 1014 hPa | - | - | 0 W/m² | - |
| 1777435744 | 0.56° C | 61% | 1014 hPa | - | - | 0 W/m² | - |
| 1777434820 | 0° C | 60% | 1014 hPa | - | - | 0 W/m² | - |
| 1777433896 | 0.56° C | 59% | 1014 hPa | - | - | 0 W/m² | - |
| 1777432971 | 0.56° C | 59% | 1014 hPa | - | - | 0 W/m² | - |
| 1777432047 | 0.56° C | 58% | 1014 hPa | - | - | 0 W/m² | - |
| 1777431122 | 0.56° C | 57% | 1014 hPa | - | - | 0 W/m² | - |
| 1777430198 | 0.56° C | 57% | 1014 hPa | - | - | 0 W/m² | - |
| 1777429273 | 1.11° C | 56% | 1014 hPa | - | - | 0 W/m² | - |
| 1777428360 | 1.67° C | 54% | 1013 hPa | - | - | 0 W/m² | - |
| 1777427436 | 1.67° C | 55% | 1013 hPa | - | - | 0 W/m² | - |
* Rain since midnight (hover to see other rain measurements)
** Current wind speed in m/s (hover to see current wind gust speed)